This is the latest recevied weather packets stored in our database for station/object HB9BTL-13. If no packets are shown the sender has not sent any weather packets the latest 10 day(s).
| Time | Temp. | Humidity | Pressure | Rain* | Wind** | Luminosity | Snow |
|---|---|---|---|---|---|---|---|
| 1777545440 | 17.22° C | 39% | 1022.3 hPa | - | - | - | - |
| 1777544534 | 16.67° C | 39% | 1022.5 hPa | - | - | - | - |
| 1777543629 | 16.67° C | 40% | 1022.5 hPa | - | - | - | - |
| 1777541819 | 15.56° C | 39% | 1022.9 hPa | - | - | - | - |
| 1777540913 | 15.56° C | 42% | 1022.9 hPa | - | - | - | - |
| 1777540008 | 15° C | 43% | 1023 hPa | - | - | - | - |
| 1777539102 | 13.89° C | 42% | 1022.9 hPa | - | - | - | - |
| 1777538197 | 14.44° C | 42% | 1023 hPa | - | - | - | - |
| 1777537291 | 13.33° C | 42% | 1023.1 hPa | - | - | - | - |
| 1777536386 | 13.89° C | 43% | 1022.9 hPa | - | - | - | - |
| 1777534575 | 12.78° C | 44% | 1023 hPa | - | - | - | - |
| 1777533670 | 12.78° C | 46% | 1023.1 hPa | - | - | - | - |
| 1777532764 | 11.67° C | 44% | 1023.2 hPa | - | - | - | - |
| 1777531860 | 11.67° C | 43% | 1023.1 hPa | - | - | - | - |
| 1777530954 | 11.11° C | 44% | 1023.1 hPa | - | - | - | - |
| 1777530049 | 11.67° C | 45% | 1023.1 hPa | - | - | - | - |
| 1777529143 | 11.11° C | 46% | 1023.1 hPa | - | - | - | - |
| 1777528238 | 10.56° C | 45% | 1023 hPa | - | - | - | - |
| 1777527332 | 10.56° C | 45% | 1022.9 hPa | - | - | - | - |
| 1777526427 | 10.56° C | 44% | 1022.8 hPa | - | - | - | - |
| 1777525521 | 10.56° C | 44% | 1022.6 hPa | - | - | - | - |
| 1777524616 | 10.56° C | 45% | 1022.5 hPa | - | - | - | - |
| 1777523711 | 10.56° C | 45% | 1022.5 hPa | - | - | - | - |
| 1777522805 | 10.56° C | 45% | 1022.5 hPa | - | - | - | - |
| 1777521900 | 10.56° C | 44% | 1022.3 hPa | - | - | - | - |
* Rain since midnight (hover to see other rain measurements)
** Current wind speed in m/s (hover to see current wind gust speed)